GW1307 Weather Reports


time (UTC)temp
F
wind
direction
speed
knots
gust
knots
rain 1hr
in
rain 24hr
in
rain mn
in
humidity
%
barometer
mb
20260503180058 58 185 4.3 7.0 0.00 0.00 0.00 79 1014.2
20260503180036 60 250 1.7 7.8 0.00 0.00 0.00 66 1012.2
20260503174606 58 198 5.2 7.8 0.00 0.00 0.00 77 1014.2
20260503174534 61 63 0.9 3.5 0.00 0.00 0.00 68 1012.2
20260503173101 59 203 5.2 12.2 0.00 0.00 0.00 76 1014.1
20260503173029 60 292 0.9 3.5 0.00 0.00 0.00 67 1012.0
20260503171556 59 138 5.2 7.8 0.00 0.00 0.00 78 1014.1
20260503171527 60 312 1.7 4.3 0.00 0.00 0.00 69 1012.1
20260503170105 57 184 4.3 7.8 0.00 0.00 0.00 78 1014.0
20260503120105 54 200 0.9 2.6 0.00 0.00 0.00 88 1011.7
20260503100104 57 41 0.0 1.7 0.00 0.00 0.00 75 1010.0
20260503081554 55 282 0.9 2.6 0.00 0.00 0.00 83 1012.3
20260503081550 57 34 0.0 0.9 0.00 0.00 0.00 75 1010.7
20260503071557 55 19 3.5 7.8 0.00 0.00 0.00 83 1012.4
20260503071536 57 311 0.0 1.7 0.00 0.00 0.00 75 1011.0
20260503054552 54 25 5.2 11.3 0.00 0.00 0.00 84 1012.4
20260503054550 58 48 0.0 2.6 0.00 0.00 0.00 74 1011.1
20260503053055 54 26 4.3 9.6 0.00 0.00 0.00 84 1012.7
20260503053037 58 28 0.9 1.7 0.00 0.00 0.00 74 1011.2
20260503051555 54 38 7.0 13.0 0.00 0.00 0.00 85 1012.5
20260503051528 58 54 0.0 4.3 0.00 0.00 0.00 73 1011.3
20260503050055 54 17 7.8 12.2 0.00 0.00 0.00 85 1012.7
20260503050028 58 40 0.0 1.7 0.00 0.00 0.00 73 1011.4
20260503044612 54 28 7.8 13.0 0.00 0.00 0.00 86 1012.5
20260503044528 58 24 0.0 2.6 0.00 0.00 0.00 73 1011.3
20260503043100 54 11 7.8 13.9 0.00 0.00 0.00 86 1012.4
20260503043027 58 336 0.0 1.7 0.00 0.00 0.00 73 1011.1
20260503041612 54 13 7.0 11.3 0.00 0.00 0.00 86 1012.2
20260503041527 58 37 0.0 3.5 0.00 0.00 0.00 73 1011.0
20260503040058 54 347 6.1 11.3 0.00 0.00 0.00 85 1011.9
20260503040034 59 15 0.0 2.6 0.00 0.00 0.00 73 1010.8
20260503034603 54 13 6.1 10.4 0.00 0.00 0.00 85 1012.0
20260503034526 59 38 0.9 3.5 0.00 0.00 0.00 72 1010.8
20260503033116 54 32 6.1 11.3 0.00 0.00 0.00 84 1011.8
20260503033029 59 31 0.9 2.6 0.00 0.00 0.00 72 1010.6
20260503031558 55 350 6.1 10.4 0.00 0.00 0.00 84 1011.7
20260503031524 60 44 0.9 2.6 0.00 0.00 0.00 71 1010.6
20260503030105 55 30 4.3 8.7 0.00 0.00 0.00 84 1011.6
20260503030026 60 19 0.9 2.6 0.00 0.00 0.00 71 1010.2
20260503024603 56 40 3.5 6.1 0.00 0.00 0.00 83 1011.5
20260503024522 60 92 0.0 1.7 0.00 0.00 0.00 71 1010.3
20260503023057 56 49 2.6 7.0 0.00 0.00 0.00 82 1011.4
20260503023021 61 35 1.7 7.0 0.00 0.00 0.00 70 1010.0
20260503021609 57 67 1.7 7.0 0.00 0.00 0.00 82 1011.5
20260503021521 61 38 0.9 3.5 0.00 0.00 0.00 69 1009.8
20260503020109 57 38 0.9 7.0 0.00 0.00 0.00 83 1011.5
20260503020021 62 46 1.7 3.5 0.00 0.00 0.00 68 1009.9
20260503014558 57 178 5.2 9.6 0.00 0.00 0.00 83 1011.6
20260503014521 63 34 0.9 5.2 0.00 0.00 0.00 67 1010.0
20260503013058 57 165 7.0 14.8 0.00 0.00 0.00 83 1011.7
20260503013022 64 44 0.0 3.5 0.00 0.00 0.00 65 1009.9
20260503011607 57 186 7.0 13.9 0.00 0.00 0.00 83 1011.7
20260503011523 64 41 0.0 3.5 0.00 0.00 0.00 66 1009.9
20260503010103 57 189 8.7 14.8 0.00 0.00 0.00 82 1011.7
20260503010025 65 59 0.0 2.6 0.00 0.00 0.00 64 1009.9
20260503004600 57 209 10.4 17.4 0.00 0.00 0.00 81 1011.8
20260503004519 66 38 0.9 4.3 0.00 0.00 0.00 63 1009.9
20260503003102 57 183 12.2 18.2 0.00 0.00 0.00 80 1011.8
20260503003020 68 44 1.7 5.2 0.00 0.00 0.00 61 1009.9
20260503001603 57 183 11.3 16.5 0.00 0.00 0.00 79 1012.0
20260503001517 68 57 0.9 5.2 0.00 0.00 0.00 60 1009.9
20260503000057 58 203 11.3 18.2 0.00 0.00 0.00 80 1012.0
20260503000016 69 67 1.7 4.3 0.00 0.00 0.00 59 1009.9
20260502234556 58 201 11.3 20.0 0.00 0.00 0.00 80 1012.1
20260502234524 70 39 0.9 3.5 0.00 0.00 0.00 58 1009.9
20260502233115 71 40 0.9 3.5 0.00 0.00 0.00 57 1009.9
20260502233056 57 187 12.2 16.5 0.00 0.00 0.00 81 1012.2
20260502231558 57 195 11.3 15.6 0.00 0.00 0.00 81 1012.3
20260502231513 71 28 0.9 4.3 0.00 0.00 0.00 57 1009.8
20260502230058 57 190 11.3 15.6 0.00 0.00 0.00 82 1012.7
20260502230012 72 50 0.9 3.5 0.00 0.00 0.00 56 1010.0
20260502224558 58 191 10.4 14.8 0.00 0.00 0.00 81 1013.0
20260502224512 72 19 0.9 2.6 0.00 0.00 0.00 55 1010.0
20260502223101 58 191 9.6 12.2 0.00 0.00 0.00 82 1013.1
20260502223009 72 26 2.6 7.0 0.00 0.00 0.00 57 1010.3
20260502221556 57 196 8.7 11.3 0.00 0.00 0.00 83 1013.6
20260502221507 74 46 0.9 2.6 0.00 0.00 0.00 54 1010.7
20260502220141 57 196 7.8 11.3 0.00 0.00 0.00 83 1013.8
20260502220005 74 300 0.0 2.6 0.00 0.00 0.00 54 1010.8
20260502214555 57 200 7.0 12.2 0.00 0.00 0.00 84 1014.1
20260502214504 71 150 0.9 4.3 0.00 0.00 0.00 57 1011.1
20260502213109 68 178 0.0 2.6 0.00 0.00 0.00 60 1011.2
20260502213102 58 186 7.8 13.0 0.00 0.00 0.00 84 1014.2
20260502211557 70 45 0.0 2.6 0.00 0.00 0.00 60 1011.4
20260502210055 69 57 0.0 3.5 0.00 0.00 0.00 63 1011.8
20260502204608 57 195 7.0 10.4 0.00 0.00 0.00 85 1014.4
20260502204605 68 53 0.0 1.7 0.00 0.00 0.00 64 1012.0
20260502203108 57 165 6.1 9.6 0.00 0.00 0.00 86 1014.8
20260502203055 69 53 0.0 2.6 0.00 0.00 0.00 61 1012.1
20260502201553 56 205 6.1 9.6 0.00 0.00 0.00 86 1014.8
20260502200055 56 185 4.3 7.8 0.00 0.00 0.00 86 1015.1
20260502200048 65 211 0.0 2.6 0.00 0.00 0.00 69 1012.5
20260502194557 56 200 5.2 7.8 0.00 0.00 0.00 86 1015.2
20260502194547 63 178 0.0 4.3 0.00 0.00 0.00 71 1012.6
20260502193057 56 212 4.3 9.6 0.00 0.00 0.00 86 1015.3
20260502193051 64 189 0.0 1.7 0.00 0.00 0.00 70 1012.7
20260502191619 56 221 4.3 9.6 0.00 0.00 0.00 86 1015.4
20260502191547 62 192 0.0 4.3 0.00 0.00 0.00 73 1013.0
20260502190106 55 180 5.2 9.6 0.00 0.00 0.00 86 1015.4
20260502190042 62 219 0.0 1.7 0.00 0.00 0.00 72 1012.9
20260502184556 55 198 6.1 9.6 0.00 0.00 0.00 86 1015.3
20260502184552 61 219 0.0 4.3 0.00 0.00 0.00 75 1012.9
20260502183102 55 186 6.1 11.3 0.00 0.00 0.00 86 1015.4
20260502183038 60 20 0.9 3.5 0.00 0.00 0.00 76 1012.9
20260502181600 56 170 6.1 12.2 0.00 0.00 0.00 85 1015.3
20260502181538 59 225 0.0 2.6 0.00 0.00 0.00 77 1013.0